COSMOS 564

Satellite information

Favourite Embed

Satellite Type and Status

PAYLOADIN ORBIT

Key statistics

Satellite COSMOS 564 at a glance.

Uptime

19182

Days in orbit

Revolutions

≈ 12.6

Per day

Orbit

LEO

Low Earth Orbit

Inclination

74.0

Latest

Satellite identification and parameters

Extended collection of information and parameters for COSMOS 564.

Object identification

Identified? True

Debris? False

Object name: COSMOS 564

International designator: 1973-037A

Object number (NORAD): 6675

Object ID (CCSDS): 6675

Country: COMMONWEALTH OF INDEPENDENT STATES (CIS)

Current information (Y/N): Y

RCS size: MEDIUM

Orbital parameters

Period: 114.594 minutes

Inclination: 74.0186 deg

SMA: 7815.118 km

Apoapsis: 1479.493 km

Periapsis: 1394.473 km

RAAN: 247.2278 deg

Eccentricy: 0.00543951

Argument of periapsis: 112.8986 deg

Mean anomaly: 59.7766 deg

Mean motion: 12.56606942 rev/day

Mean motion (dot): -0.0000001 rev/day2

B* drag term: 0.000033267335 1/REarth

Two-line elements (TLE)

Creation date: Dec. 14, 2025, 3:07 a.m.

Reference frame: TEME

Reference center: EARTH

Epoch: Dec. 13, 2025, 11:02 a.m. UTC

TLE line 0: 0 COSMOS 564

TLE line 1: 1 06675U 73037A 25347.46014275 -.00000010 00000-0 33267-4 0 9991

TLE line 2: 2 06675 74.0186 247.2278 0054395 112.8986 59.7766 12.56606942408941

Live tracking on map

Real-time ground track for satellite COSMOS 564.

In-orbit conjunctions

There are no conjunctions computed for COSMOS 564, at the moment. Check back to stay up to date, as we update our databases every day.

Go to all conjunctions

Associated space launch

Military communications satellites

COSMOS 564 was lifted into orbit during the mission ‘Kosmos-3M | Strela-1M 41-48’, on board a Kosmos-3M space rocket.

The launch took place on June 8, 1973, 3:50 p.m. from 132/1 (132L).

For more information about the launch, click the button.

Launch to space Kosmos-3M | Strela-1M 41-48
Kosmos-3M | Strela-1M 41-48

Agency: N/A

Status: Launch Successful

Launch date: June 8, 1973, 3:50 p.m. UTC

Rocket: Kosmos-3M

Launch pad: 132/1 (132L)

Location: Plesetsk Cosmodrome, Russian Federation

...

Latest news about this satellite

There are no fresh news available about this satellite. Check back as we update our databases every day.


Newsletter sign-up

Weekly statistics, charts and insights to help you stay on top of the space industry.